• In Belarus
  • List of Countries
  • For 7 days
  • Water Temperature
  • Satellite Maps
  • Weather Map
  • Weather Widgets
  • user-avatar
    Login

    Hourly Weather Sherpur

    Today, 20 June, Thursday

    Time Temperature Precipitation Wind Pressure Humidity
    00:00 +22°C° 0 mm 1 mps 608 mmHg 26%
    01:00 +21°C° 0 mm 1 mps 608 mmHg 27%
    02:00 +21°C° 0 mm 1 mps 608 mmHg 29%
    03:00 +20°C° 0 mm 1 mps 607 mmHg 30%
    04:00 +19°C° 0 mm 1 mps 607 mmHg 31%
    05:00 +19°C° 0 mm 1 mps 607 mmHg 32%
    06:00 +20°C° 0 mm 1 mps 608 mmHg 29%
    07:00 +22°C° 0 mm 1 mps 608 mmHg 25%
    08:00 +23°C° 0 mm 1 mps 609 mmHg 22%
    09:00 +25°C° 0 mm 1 mps 610 mmHg 21%
    10:00 +26°C° 0 mm 1 mps 610 mmHg 19%
    11:00 +27°C° 0 mm 2 mps 610 mmHg 18%
    12:00 +28°C° 0 mm 2 mps 610 mmHg 17%
    13:00 +29°C° 0 mm 2 mps 610 mmHg 17%
    14:00 +30°C° 0 mm 3 mps 610 mmHg 17%
    15:00 +29°C° 0 mm 4 mps 609 mmHg 20%
    16:00 +28°C° 0 mm 6 mps 609 mmHg 24%
    17:00 +27°C° 0 mm 7 mps 608 mmHg 27%
    18:00 +26°C° 0 mm 5 mps 608 mmHg 28%
    19:00 +25°C° 0 mm 3 mps 609 mmHg 28%
    20:00 +25°C° 0 mm 1 mps 609 mmHg 29%
    21:00 +24°C° 0 mm 1 mps 609 mmHg 30%
    22:00 +24°C° 0 mm 1 mps 609 mmHg 30%
    23:00 +23°C° 0 mm 1 mps 609 mmHg 31%

    Tomorrow, 21 June, Friday

    Time Temperature Precipitation Wind Pressure Humidity
    00:00 +22°C° 0 mm 1 mps 609 mmHg 33%
    01:00 +22°C° 0 mm 1 mps 608 mmHg 34%
    02:00 +21°C° 0 mm 1 mps 608 mmHg 36%
    03:00 +20°C° 0 mm 1 mps 608 mmHg 38%
    04:00 +19°C° 0 mm 1 mps 608 mmHg 40%
    05:00 +19°C° 0 mm 1 mps 607 mmHg 42%
    06:00 +20°C° 0 mm 1 mps 608 mmHg 39%
    07:00 +22°C° 0 mm 1 mps 609 mmHg 35%
    08:00 +24°C° 0 mm 1 mps 610 mmHg 32%
    09:00 +25°C° 0 mm 1 mps 610 mmHg 30%
    10:00 +26°C° 0 mm 1 mps 611 mmHg 27%
    11:00 +27°C° 0 mm 2 mps 611 mmHg 25%
    12:00 +28°C° 0 mm 2 mps 611 mmHg 24%
    13:00 +29°C° 0 mm 3 mps 611 mmHg 24%
    14:00 +30°C° 0 mm 3 mps 611 mmHg 23%
    15:00 +30°C° 0 mm 3 mps 610 mmHg 23%
    16:00 +30°C° 0 mm 2 mps 610 mmHg 24%
    17:00 +29°C° 0 mm 2 mps 610 mmHg 25%
    18:00 +28°C° 0.1 mm 2 mps 610 mmHg 29%
    19:00 +26°C° 0.1 mm 2 mps 610 mmHg 34%
    20:00 +25°C° 0.1 mm 3 mps 609 mmHg 38%
    21:00 +24°C° 0 mm 2 mps 610 mmHg 40%
    22:00 +24°C° 0 mm 1 mps 610 mmHg 43%
    23:00 +21°C° 0 mm 0 mps 610 mmHg 45%

    Day after tomorrow, 22 June, Saturday

    Time Temperature Precipitation Wind Pressure Humidity
    00:00 +23°C° 0 mm 1 mps 610 mmHg 45%
    01:00 +23°C° 0 mm 1 mps 610 mmHg 45%
    02:00 +23°C° 0 mm 1 mps 609 mmHg 45%
    03:00 +22°C° 0 mm 1 mps 609 mmHg 47%
    04:00 +21°C° 0 mm 1 mps 609 mmHg 48%
    05:00 +20°C° 0 mm 1 mps 608 mmHg 50%
    06:00 +20°C° 0 mm 0 mps 609 mmHg 44%
    07:00 +22°C° 0 mm 0 mps 610 mmHg 38%
    08:00 +23°C° 0 mm 0 mps 611 mmHg 33%
    09:00 +26°C° 0 mm 1 mps 611 mmHg 30%
    10:00 +28°C° 0 mm 1 mps 611 mmHg 27%
    11:00 +29°C° 0 mm 1 mps 612 mmHg 24%
    12:00 +29°C° 0 mm 2 mps 611 mmHg 24%
    13:00 +30°C° 0 mm 2 mps 611 mmHg 24%
    14:00 +31°C° 0 mm 3 mps 611 mmHg 23%
    15:00 +31°C° 0 mm 3 mps 611 mmHg 23%
    16:00 +31°C° 0 mm 3 mps 611 mmHg 22%
    17:00 +30°C° 0 mm 3 mps 611 mmHg 21%
    18:00 +29°C° 0 mm 3 mps 610 mmHg 22%
    19:00 +27°C° 0 mm 4 mps 610 mmHg 22%
    20:00 +26°C° 0 mm 4 mps 610 mmHg 23%
    21:00 +25°C° 0 mm 3 mps 610 mmHg 24%
    22:00 +24°C° 0 mm 2 mps 610 mmHg 25%
    23:00 +23°C° 0 mm 1 mps 610 mmHg 26%

    23 June, Sunday

    Time Temperature Precipitation Wind Pressure Humidity
    00:00 +22°C° 0 mm 1 mps 609 mmHg 28%
    01:00 +21°C° 0 mm 1 mps 609 mmHg 29%
    02:00 +21°C° 0 mm 1 mps 608 mmHg 30%
    03:00 +20°C° 0 mm 1 mps 608 mmHg 30%
    04:00 +20°C° 0 mm 1 mps 608 mmHg 31%
    05:00 +19°C° 0 mm 1 mps 608 mmHg 31%
    06:00 +21°C° 0 mm 1 mps 608 mmHg 28%
    07:00 +23°C° 0 mm 1 mps 609 mmHg 25%
    08:00 +24°C° 0 mm 1 mps 610 mmHg 21%
    09:00 +26°C° 0 mm 1 mps 610 mmHg 20%
    10:00 +27°C° 0 mm 2 mps 611 mmHg 18%
    11:00 +28°C° 0 mm 2 mps 611 mmHg 16%
    12:00 +29°C° 0 mm 2 mps 611 mmHg 16%
    13:00 +30°C° 0 mm 2 mps 611 mmHg 16%
    14:00 +31°C° 0 mm 2 mps 611 mmHg 16%
    15:00 +31°C° 0 mm 2 mps 611 mmHg 16%
    16:00 +30°C° 0 mm 3 mps 611 mmHg 17%
    17:00 +30°C° 0 mm 3 mps 610 mmHg 18%
    18:00 +29°C° 0 mm 3 mps 610 mmHg 19%
    19:00 +27°C° 0 mm 4 mps 610 mmHg 21%
    20:00 +26°C° 0 mm 4 mps 610 mmHg 23%
    21:00 +25°C° 0 mm 3 mps 610 mmHg 24%
    22:00 +24°C° 0 mm 3 mps 610 mmHg 25%
    23:00 +23°C° 0 mm 2 mps 610 mmHg 26%

    24 June, Monday

    Time Temperature Precipitation Wind Pressure Humidity
    00:00 +21°C° 0 mm 2 mps 609 mmHg 27%
    01:00 +20°C° 0 mm 2 mps 609 mmHg 28%
    02:00 +20°C° 0 mm 1 mps 608 mmHg 29%
    03:00 +20°C° 0 mm 1 mps 608 mmHg 30%
    04:00 +19°C° 0 mm 1 mps 608 mmHg 31%
    05:00 +18°C° 0 mm 1 mps 607 mmHg 32%
    06:00 +20°C° 0 mm 1 mps 608 mmHg 29%
    07:00 +22°C° 0 mm 1 mps 609 mmHg 26%
    08:00 +23°C° 0 mm 1 mps 610 mmHg 22%
    09:00 +25°C° 0 mm 1 mps 610 mmHg 21%
    10:00 +26°C° 0 mm 2 mps 611 mmHg 19%
    11:00 +28°C° 0 mm 2 mps 611 mmHg 17%
    12:00 +29°C° 0 mm 2 mps 611 mmHg 17%
    13:00 +30°C° 0 mm 2 mps 611 mmHg 16%
    14:00 +31°C° 0 mm 2 mps 611 mmHg 15%
    15:00 +31°C° 0 mm 2 mps 611 mmHg 15%
    16:00 +31°C° 0 mm 3 mps 611 mmHg 15%
    17:00 +31°C° 0 mm 3 mps 611 mmHg 15%
    18:00 +30°C° 0 mm 3 mps 611 mmHg 17%
    19:00 +29°C° 0 mm 2 mps 611 mmHg 19%
    20:00 +27°C° 0 mm 2 mps 610 mmHg 21%
    21:00 +26°C° 0 mm 2 mps 610 mmHg 23%
    22:00 +25°C° 0 mm 1 mps 610 mmHg 25%
    23:00 +24°C° 0 mm 1 mps 610 mmHg 27%

    25 June, Tuesday

    Time Temperature Precipitation Wind Pressure Humidity
    00:00 +23°C° 0 mm 1 mps 610 mmHg 28%
    01:00 +20°C° 0 mm 0 mps 609 mmHg 30%
    02:00 +20°C° 0 mm 0 mps 609 mmHg 31%
    03:00 +19°C° 0 mm 0 mps 608 mmHg 31%
    04:00 +19°C° 0 mm 0 mps 608 mmHg 31%
    05:00 +18°C° 0 mm 0 mps 607 mmHg 32%
    06:00 +20°C° 0 mm 0 mps 608 mmHg 28%
    07:00 +21°C° 0 mm 0 mps 609 mmHg 24%
    08:00 +23°C° 0 mm 0 mps 610 mmHg 20%
    09:00 +26°C° 0 mm 1 mps 610 mmHg 19%
    10:00 +28°C° 0 mm 1 mps 610 mmHg 18%
    11:00 +29°C° 0 mm 1 mps 611 mmHg 17%
    12:00 +30°C° 0 mm 2 mps 611 mmHg 18%
    13:00 +31°C° 0 mm 3 mps 610 mmHg 19%
    14:00 +32°C° 0 mm 4 mps 610 mmHg 20%
    15:00 +30°C° 0.1 mm 5 mps 610 mmHg 23%
    16:00 +29°C° 0.1 mm 5 mps 609 mmHg 27%
    17:00 +27°C° 0.1 mm 5 mps 608 mmHg 31%
    18:00 +27°C° 0 mm 4 mps 609 mmHg 30%
    19:00 +27°C° 0 mm 3 mps 609 mmHg 30%
    20:00 +26°C° 0 mm 2 mps 609 mmHg 29%
    21:00 +25°C° 0 mm 2 mps 609 mmHg 29%
    22:00 +24°C° 0 mm 2 mps 609 mmHg 29%
    23:00 +23°C° 0 mm 1 mps 609 mmHg 29%
    Show more